{"data":{"norad_id":55600,"epoch":"2026-05-25T01:55:41.109888Z","epoch_age_seconds":61874,"freshness":"FRESH","line1":"1 55600U 23020AH  26145.08033692 -.00000064  00000+0  72111-5 0  9999","line2":"2 55600  43.0020 282.6981 0000987 279.3430  80.7310 15.27577709180722","mean_motion":15.27577709,"eccentricity":9.87e-5,"inclination_deg":43.002,"raan_deg":282.6981,"arg_perigee_deg":279.343,"mean_anomaly_deg":80.731,"bstar":7.2111e-6,"rev_number":18072,"period_min":94.266890091154,"perigee_km":482.37875638164,"apogee_km":483.73315587118,"semimajor_km":6861.1929561264,"source":"CELESTRAK","updated_at":"2026-05-25T13:38:17.841188Z"}}